,,Stat5,,Stat1,,Stat2,,Stat3,,Stat4,,Wind1,,Wind1,
time,status,PA1M_AVG,status,PR1M_SUM,status,RH1M_AVG,status,SR1M_AVG,status,TA1M_AVG,status,W1dAve1m,status,W1sAve1m,
2002-07-24, 09:05:00,VALID,920.553,VALID,0,VALID,76.8253,VALID,491.425,VALID,23.4654,VALID,149,VALID,1.09896,
2002-07-24, 09:06:00,VALID,920.554,VALID,0,VALID,76.6472,VALID,464.663,VALID,23.4651,VALID,169,VALID,1.00937,
2002-07-24, 09:07:00,VALID,920.543,VALID,0,VALID,76.3777,VALID,446.715,VALID,23.4972,VALID,148,VALID,1.28301,
2002-07-24, 09:08:00,VALID,920.52,VALID,0,VALID,76.3103,VALID,504.653,VALID,23.4322,VALID,137,VALID,1.35136,
2002-07-24, 09:09:00,VALID,920.511,VALID,0,VALID,76.9588,VALID,527.968,VALID,23.4066,VALID,134,VALID,0.356771,
2002-07-24, 09:10:00,VALID,920.501,VALID,0,VALID,77.5285,VALID,547.649,VALID,23.543,VALID,131,VALID,0.18418,
2002-07-24, 09:11:00,VALID,920.483,VALID,0,VALID,76.0458,VALID,534.981,VALID,23.8272,VALID,124,VALID,0.29223,
2002-07-24, 09:12:00,VALID,920.489,VALID,0,VALID,73.9387,VALID,535.728,VALID,24.0638,VALID,129,VALID,0.738809,
2002-07-24, 09:13:00,VALID,920.492,VALID,0,VALID,71.8088,VALID,502.225,VALID,24.2116,VALID,133,VALID,0.34304,
2002-07-24, 09:14:00,VALID,920.488,VALID,0,VALID,70.073,VALID,447.53,VALID,24.3413,VALID,106,VALID,0.206931,
2002-07-24, 09:15:00,VALID,920.489,VALID,0,VALID,69.2376,VALID,416.964,VALID,24.4809,VALID,69,VALID,0.164522,
2002-07-24, 09:16:00,VALID,920.489,VALID,0,VALID,67.1369,VALID,508.474,VALID,24.609,VALID,12,VALID,0.341216,
2002-07-24, 09:17:00,VALID,920.49,VALID,0,VALID,65.6453,VALID,512.006,VALID,24.6634,VALID,13,VALID,0.626953,
2002-07-24, 09:18:00,VALID,920.475,VALID,0,VALID,65.747,VALID,534.523,VALID,24.6281,VALID,15,VALID,0.458767,
2002-07-24, 09:19:00,VALID,920.469,VALID,0,VALID,65.555,VALID,545.221,VALID,24.7316,VALID,9,VALID,0.282227,
2002-07-24, 09:20:00,VALID,920.456,VALID,0,VALID,65.2727,VALID,528.494,VALID,24.7533,VALID,321,VALID,0.578947,
2002-07-24, 09:21:00,VALID,920.444,VALID,0,VALID,65.8233,VALID,541.145,VALID,24.7404,VALID,326,VALID,0.311266,
2002-07-24, 09:22:00,VALID,920.424,VALID,0,VALID,66.1362,VALID,561.573,VALID,24.8794,VALID,327,VALID,0.0783155,
2002-07-24, 09:23:00,VALID,920.393,VALID,0,VALID,66.3053,VALID,545.373,VALID,25.1217,VALID,359,VALID,0.814453,
2002-07-24, 09:24:00,VALID,920.383,VALID,0,VALID,66.983,VALID,563.101,VALID,25.1867,VALID,25,VALID,1.24824,
2002-07-24, 09:25:00,VALID,920.376,VALID,0,VALID,65.6161,VALID,543.743,VALID,25.2475,VALID,38,VALID,1.27652,
2002-07-24, 09:26:00,VALID,920.368,VALID,0,VALID,66.6791,VALID,587.673,VALID,25.1831,VALID,21,VALID,0.878906,
2002-07-24, 09:27:00,VALID,920.364,VALID,0,VALID,67.6405,VALID,601.767,VALID,25.23,VALID,15,VALID,1.45148,
2002-07-24, 09:28:00,VALID,920.344,VALID,0,VALID,66.8661,VALID,602.955,VALID,25.3274,VALID,21,VALID,1.10857,
2002-07-24, 09:29:00,VALID,920.336,VALID,0,VALID,66.5977,VALID,613.925,VALID,25.4241,VALID,350,VALID,0.972656,
2002-07-24, 09:30:00,VALID,920.312,VALID,0,VALID,65.2905,VALID,591.901,VALID,25.4716,VALID,8,VALID,0.424548,
2002-07-24, 09:31:00,VALID,920.293,VALID,0,VALID,66.0751,VALID,550.332,VALID,25.482,VALID,345,VALID,0.902803,
2002-07-24, 09:32:00,VALID,920.284,VALID,0,VALID,66.3256,VALID,531.16,VALID,25.492,VALID,30,VALID,0.836571,
2002-07-24, 09:33:00,VALID,920.278,VALID,0,VALID,66.7211,VALID,601.291,VALID,25.5951,VALID,27,VALID,0.617188,
2002-07-24, 09:34:00,VALID,920.273,VALID,0,VALID,64.9383,VALID,590.593,VALID,25.718,VALID,78,VALID,0.905194,
2002-07-24, 09:35:00,VALID,920.263,VALID,0,VALID,64.7196,VALID,574.088,VALID,25.6239,VALID,107,VALID,0.842548,
2002-07-24, 09:36:00,VALID,920.266,VALID,0,VALID,66.6817,VALID,616.082,VALID,25.482,VALID,107,VALID,0.735937,
2002-07-24, 09:37:00,VALID,920.271,VALID,0,VALID,67.7994,VALID,633.928,VALID,25.3998,VALID,43,VALID,0.627056,
2002-07-24, 09:38:00,VALID,920.253,VALID,0,VALID,66.571,VALID,651.996,VALID,25.5192,VALID,7,VALID,0.0504464,
2002-07-24, 09:39:00,VALID,920.264,VALID,0,VALID,64.4576,VALID,644.151,VALID,25.6741,VALID,311,VALID,0.333008,
2002-07-24, 09:40:00,VALID,920.24,VALID,0,VALID,64.6942,VALID,623.706,VALID,25.7326,VALID,349,VALID,0.167969,
2002-07-24, 09:41:00,VALID,920.227,VALID,0,VALID,63.4505,VALID,639.889,VALID,25.9519,VALID,67,VALID,0.311298,
2002-07-24, 09:42:00,VALID,920.218,VALID,0,VALID,62.8376,VALID,626.898,VALID,26.175,VALID,131,VALID,0.703726,
2002-07-24, 09:43:00,VALID,920.221,VALID,0,VALID,61.4948,VALID,612.583,VALID,26.1204,VALID,225,VALID,0.675564,
2002-07-24, 09:44:00,VALID,920.214,VALID,0,VALID,62.3404,VALID,563.696,VALID,25.9034,VALID,238,VALID,0.36761,
2002-07-24, 09:45:00,VALID,920.209,VALID,0,VALID,63.3412,VALID,536.085,VALID,25.7934,VALID,235,VALID,0.0960938,
2002-07-24, 09:46:00,VALID,920.224,VALID,0,VALID,63.8892,VALID,530.209,VALID,26.0133,VALID,143,VALID,0.294969,
2002-07-24, 09:47:00,VALID,920.223,VALID,0,VALID,62.5553,VALID,559.569,VALID,26.2074,VALID,60,VALID,0.612542,
2002-07-24, 09:48:00,VALID,920.234,VALID,0,VALID,62.184,VALID,613.11,VALID,26.1708,VALID,72,VALID,0.782095,
2002-07-24, 09:49:00,VALID,920.245,VALID,0,VALID,62.7715,VALID,639.736,VALID,26.0586,VALID,83,VALID,0.437027,
2002-07-24, 09:50:00,VALID,920.245,VALID,0,VALID,62.7829,VALID,654.475,VALID,26.0511,VALID,83,VALID,0.667668,
2002-07-24, 09:51:00,VALID,920.267,VALID,0,VALID,63.2636,VALID,647.734,VALID,26.0767,VALID,112,VALID,0.606388,
2002-07-24, 09:52:00,VALID,920.263,VALID,0,VALID,65.686,VALID,523.842,VALID,26.0573,VALID,75,VALID,0.677787,
2002-07-24, 09:53:00,VALID,920.27,VALID,0,VALID,65.0833,VALID,614.027,VALID,26.1097,VALID,17,VALID,0.271484,
2002-07-24, 09:54:00,VALID,920.28,VALID,0,VALID,63.495,VALID,647.072,VALID,26.2895,VALID,31,VALID,0.139974,
2002-07-24, 09:55:00,VALID,920.28,VALID,0,VALID,62.652,VALID,626.066,VALID,26.4778,VALID,190,VALID,0.473437,
2002-07-24, 09:56:00,VALID,920.281,VALID,0,VALID,63.1924,VALID,591.137,VALID,26.545,VALID,213,VALID,0.516036,
2002-07-24, 09:57:00,VALID,920.27,VALID,0,VALID,62.5579,VALID,593.378,VALID,26.5055,VALID,267,VALID,0.767064,
2002-07-24, 09:58:00,VALID,920.273,VALID,0,VALID,62.1789,VALID,623.23,VALID,26.1637,VALID,281,VALID,1.07641,
2002-07-24, 09:59:00,VALID,920.272,VALID,0,VALID,62.9203,VALID,627.747,VALID,25.7617,VALID,320,VALID,1.09023,
2002-07-24, 10:00:00,VALID,920.265,VALID,0,VALID,63.1199,VALID,621.651,VALID,25.7526,VALID,346,VALID,0.887109,
2002-07-24, 10:01:00,VALID,920.256,VALID,0,VALID,63.8854,VALID,589.048,VALID,25.8422,VALID,2,VALID,0.599918,
2002-07-24, 10:02:00,VALID,920.253,VALID,0,VALID,63.2865,VALID,623.4,VALID,26.0133,VALID,351,VALID,0.912829,
2002-07-24, 10:03:00,VALID,920.259,VALID,0,VALID,63.7061,VALID,613.84,VALID,25.8225,VALID,315,VALID,1.13363,
2002-07-24, 10:04:00,VALID,920.266,VALID,0,VALID,63.1962,VALID,580.133,VALID,25.5641,VALID,314,VALID,0.878405,
2002-07-24, 10:05:00,VALID,920.273,VALID,0,VALID,64.6992,VALID,597.606,VALID,25.545,VALID,312,VALID,0.491571,
2002-07-24, 10:06:00,VALID,920.272,VALID,0,VALID,65.541,VALID,496.91,VALID,25.6838,VALID,327,VALID,0.276727,
2002-07-24, 10:07:00,VALID,920.276,VALID,0,VALID,65.2092,VALID,397.793,VALID,25.8034,VALID,240,VALID,0.841912,
2002-07-24, 10:08:00,VALID,920.266,VALID,0,VALID,65.6059,VALID,426.949,VALID,25.6385,VALID,270,VALID,0.464949,
2002-07-24, 10:09:00,VALID,920.261,VALID,0,VALID,65.6746,VALID,539.753,VALID,25.5509,VALID,252,VALID,0.725184,
2002-07-24, 10:10:00,VALID,920.276,VALID,0,VALID,64.7717,VALID,563.628,VALID,25.4668,VALID,269,VALID,0.517736,
2002-07-24, 10:11:00,VALID,920.261,VALID,0,VALID,64.6916,VALID,628.613,VALID,25.4988,VALID,347,VALID,1.09095,
2002-07-24, 10:12:00,VALID,920.26,VALID,0,VALID,65.0629,VALID,639.243,VALID,25.4781,VALID,243,VALID,1.12522,
2002-07-24, 10:13:00,VALID,920.266,VALID,0,VALID,65.4088,VALID,623.91,VALID,25.2333,VALID,247,VALID,1.50411,
2002-07-24, 10:14:00,VALID,920.289,VALID,0,VALID,66.2442,VALID,644.083,VALID,25.0422,VALID,242,VALID,0.964509,
2002-07-24, 10:15:00,VALID,920.284,VALID,0,VALID,66.9843,VALID,623.434,VALID,25.049,VALID,237,VALID,0.788281,
2002-07-24, 10:16:00,VALID,920.288,VALID,0,VALID,66.3561,VALID,656.003,VALID,25.0642,VALID,245,VALID,1.25452,
2002-07-24, 10:17:00,VALID,920.303,VALID,0,VALID,66.3549,VALID,717.1,VALID,25.0196,VALID,225,VALID,1.10817,
2002-07-24, 10:18:00,VALID,920.29,VALID,0,VALID,66.6982,VALID,703.465,VALID,25.1622,VALID,239,VALID,0.905048,
2002-07-24, 10:19:00,VALID,920.295,VALID,0,VALID,66.7224,VALID,660.758,VALID,25.2459,VALID,253,VALID,0.780165,
2002-07-24, 10:20:00,VALID,920.293,VALID,0,VALID,66.1514,VALID,604.602,VALID,25.2398,VALID,247,VALID,1.46791,
2002-07-24, 10:21:00,VALID,920.295,VALID,0,VALID,67.2259,VALID,624.895,VALID,24.9996,VALID,251,VALID,1.55645,
2002-07-24, 10:22:00,VALID,920.297,VALID,0,VALID,66.8648,VALID,634.726,VALID,24.8091,VALID,263,VALID,1.13281,
2002-07-24, 10:23:00,VALID,920.315,VALID,0,VALID,67.4942,VALID,616.251,VALID,24.7674,VALID,294,VALID,0.946791,
2002-07-24, 10:24:00,VALID,920.325,VALID,0,VALID,67.1547,VALID,585.669,VALID,24.8515,VALID,229,VALID,0.554054,
2002-07-24, 10:25:00,VALID,920.339,VALID,0,VALID,68.0982,VALID,604.942,VALID,25.0461,VALID,270,VALID,0.723722,
2002-07-24, 10:26:00,VALID,920.36,VALID,0,VALID,67.8109,VALID,605.112,VALID,25.0936,VALID,251,VALID,0.950321,
2002-07-24, 10:27:00,VALID,920.361,VALID,0,VALID,67.4828,VALID,581.678,VALID,24.9475,VALID,252,VALID,1.10409,
2002-07-24, 10:28:00,VALID,920.368,VALID,0,VALID,68.4111,VALID,526.032,VALID,24.8364,VALID,256,VALID,1.19193,
2002-07-24, 10:29:00,VALID,920.378,VALID,0,VALID,69.2567,VALID,585.261,VALID,24.7555,VALID,238,VALID,1.69746,
2002-07-24, 10:30:00,VALID,920.361,VALID,0,VALID,70.1799,VALID,615.148,VALID,24.6857,VALID,227,VALID,1.30664,
2002-07-24, 10:31:00,VALID,920.346,VALID,0,VALID,71.496,VALID,636.9,VALID,24.817,VALID,185,VALID,1.65781,
2002-07-24, 10:32:00,VALID,920.329,VALID,0,VALID,71.2836,VALID,628.902,VALID,25.0106,VALID,245,VALID,1.21752,
2002-07-24, 10:33:00,VALID,920.329,VALID,0,VALID,70.4265,VALID,611.87,VALID,24.9495,VALID,261,VALID,1.35177,
2002-07-24, 10:34:00,VALID,920.336,VALID,0,VALID,71.3192,VALID,606.385,VALID,24.8813,VALID,250,VALID,0.937691,
2002-07-24, 10:35:00,VALID,920.327,VALID,0,VALID,70.8284,VALID,646.087,VALID,25.0106,VALID,231,VALID,1.27305,
2002-07-24, 10:36:00,VALID,920.325,VALID,0,VALID,70.7444,VALID,667.126,VALID,24.8916,VALID,250,VALID,1.59766,
2002-07-24, 10:37:00,VALID,920.313,VALID,0,VALID,71.3192,VALID,689.795,VALID,24.8367,VALID,236,VALID,1.17373,
2002-07-24, 10:38:00,VALID,920.301,VALID,0,VALID,71.8266,VALID,667.703,VALID,24.8978,VALID,234,VALID,1.18668,
2002-07-24, 10:39:00,VALID,920.286,VALID,0,VALID,72.9252,VALID,626.966,VALID,24.9883,VALID,237,VALID,1.2977,
2002-07-24, 10:40:00,VALID,920.269,VALID,0,VALID,71.9296,VALID,593.293,VALID,25.0962,VALID,254,VALID,0.889423,
2002-07-24, 10:41:00,VALID,920.255,VALID,0,VALID,70.7788,VALID,506.148,VALID,25.1719,VALID,223,VALID,0.818668,
2002-07-24, 10:42:00,VALID,920.237,VALID,0,VALID,71.9639,VALID,379.505,VALID,25.2876,VALID,222,VALID,0.794408,
2002-07-24, 10:43:00,VALID,920.23,VALID,0,VALID,71.7401,VALID,367.38,VALID,25.2779,VALID,246,VALID,0.892923,
2002-07-24, 10:44:00,VALID,920.233,VALID,0,VALID,71.2671,VALID,353.762,VALID,25.1777,VALID,232,VALID,0.929054,
2002-07-24, 10:45:00,VALID,920.219,VALID,0,VALID,72.2691,VALID,354.509,VALID,25.0548,VALID,254,VALID,1.01333,
2002-07-24, 10:46:00,VALID,920.218,VALID,0,VALID,72.3162,VALID,419.002,VALID,24.9038,VALID,243,VALID,1.02386,
2002-07-24, 10:47:00,VALID,920.205,VALID,0,VALID,73.809,VALID,536,VALID,24.7803,VALID,255,VALID,1.04407,
2002-07-24, 10:48:00,VALID,920.19,VALID,0,VALID,74.8861,VALID,539.056,VALID,24.8618,VALID,346,VALID,0.7,
2002-07-24, 10:49:00,VALID,920.205,VALID,0,VALID,74.5898,VALID,512.363,VALID,25.0519,VALID,45,VALID,0.753289,
2002-07-24, 10:50:00,VALID,920.195,VALID,0,VALID,73.6717,VALID,473.493,VALID,25.285,VALID,29,VALID,0.633259,
2002-07-24, 10:51:00,VALID,920.196,VALID,0,VALID,72.0542,VALID,452.624,VALID,25.4859,VALID,145,VALID,0.362695,
2002-07-24, 10:52:00,VALID,920.2,VALID,0,VALID,72.4408,VALID,407.506,VALID,25.732,VALID,52,VALID,0.385896,
2002-07-24, 10:53:00,VALID,920.207,VALID,0,VALID,72.4484,VALID,334.353,VALID,25.9968,VALID,40,VALID,0.416867,
2002-07-24, 10:54:00,VALID,920.187,VALID,0,VALID,70.0374,VALID,323.824,VALID,26.1589,VALID,25,VALID,0.351763,
2002-07-24, 10:55:00,VALID,920.17,VALID,0,VALID,69.2694,VALID,327.17,VALID,26.1818,VALID,172,VALID,0.610894,
2002-07-24, 10:56:00,VALID,920.157,VALID,0,VALID,69.8658,VALID,327.662,VALID,26.1747,VALID,161,VALID,0.436444,
2002-07-24, 10:57:00,VALID,920.165,VALID,0,VALID,69.0036,VALID,331.262,VALID,26.1618,VALID,194,VALID,0.358789,
2002-07-24, 10:58:00,VALID,920.167,VALID,0,VALID,68.6374,VALID,338.445,VALID,26.0295,VALID,212,VALID,0.457127,
2002-07-24, 10:59:00,VALID,920.152,VALID,0,VALID,68.6984,VALID,381.865,VALID,25.9127,VALID,231,VALID,0.199958,
2002-07-24, 11:00:00,VALID,920.169,VALID,0,VALID,70.2116,VALID,559.841,VALID,25.8387,VALID,322,VALID,0.670608,
2002-07-24, 11:01:00,VALID,920.164,VALID,0,VALID,69.9319,VALID,634.438,VALID,25.8804,VALID,345,VALID,1.05114,
2002-07-24, 11:02:00,VALID,920.185,VALID,0,VALID,69.1588,VALID,611.616,VALID,26.0233,VALID,313,VALID,0.544671,
2002-07-24, 11:03:00,VALID,920.198,VALID,0,VALID,68.5942,VALID,601.716,VALID,26.1682,VALID,343,VALID,0.818474,
2002-07-24, 11:04:00,VALID,920.205,VALID,0,VALID,67.2717,VALID,669.588,VALID,26.2135,VALID,16,VALID,1.71622,
2002-07-24, 11:05:00,VALID,920.208,VALID,0,VALID,68.6539,VALID,688.182,VALID,26.1385,VALID,17,VALID,0.817383,
2002-07-24, 11:06:00,VALID,920.228,VALID,0,VALID,68.6883,VALID,725.642,VALID,26.2591,VALID,92,VALID,0.633247,
2002-07-24, 11:07:00,VALID,920.228,VALID,0,VALID,67.5413,VALID,784.99,VALID,26.3597,VALID,236,VALID,0.660547,
2002-07-24, 11:08:00,VALID,920.226,VALID,0,VALID,67.9787,VALID,819.121,VALID,26.4076,VALID,271,VALID,0.51912,
2002-07-24, 11:09:00,VALID,920.227,VALID,0,VALID,67.1216,VALID,846.409,VALID,26.5528,VALID,199,VALID,0.513569,
2002-07-24, 11:10:00,VALID,920.215,VALID,0,VALID,67.7473,VALID,857.039,VALID,26.8375,VALID,304,VALID,0.780488,
2002-07-24, 11:11:00,VALID,920.196,VALID,0,VALID,68.542,VALID,840.483,VALID,26.9313,VALID,34,VALID,1.10176,
2002-07-24, 11:12:00,VALID,920.174,VALID,0,VALID,68.1669,VALID,839.515,VALID,27.0355,VALID,308,VALID,0.807031,
2002-07-24, 11:13:00,VALID,920.197,VALID,0,VALID,66.3892,VALID,845.119,VALID,27.1355,VALID,224,VALID,1.35053,
2002-07-24, 11:14:00,VALID,920.211,VALID,0,VALID,66.0217,VALID,831.161,VALID,26.8084,VALID,238,VALID,1.40995,
2002-07-24, 11:15:00,VALID,920.191,VALID,0,VALID,67.905,VALID,845.543,VALID,26.6473,VALID,261,VALID,1.1102,
2002-07-24, 11:16:00,VALID,920.193,VALID,0,VALID,67.4434,VALID,881.492,VALID,26.6592,VALID,286,VALID,0.536458,
2002-07-24, 11:17:00,VALID,920.176,VALID,0,VALID,67.5629,VALID,894.007,VALID,26.7702,VALID,273,VALID,0.88014,
2002-07-24, 11:18:00,VALID,920.174,VALID,0,VALID,67.6405,VALID,862.864,VALID,26.4713,VALID,241,VALID,1.79091,
2002-07-24, 11:19:00,VALID,920.157,VALID,0,VALID,68.8459,VALID,752.37,VALID,26.2161,VALID,217,VALID,1.24931,
2002-07-24, 11:20:00,VALID,920.114,VALID,0,VALID,70.3032,VALID,624.962,VALID,26.2413,VALID,240,VALID,1.26774,
2002-07-24, 11:21:00,VALID,920.102,VALID,0,VALID,69.5263,VALID,918.493,VALID,26.3843,VALID,207,VALID,0.960018,
2002-07-24, 11:22:00,VALID,920.073,VALID,0,VALID,69.2478,VALID,756.36,VALID,26.5583,VALID,246,VALID,0.768581,
2002-07-24, 11:23:00,VALID,920.085,VALID,0,VALID,67.8096,VALID,943.37,VALID,26.4111,VALID,296,VALID,0.97476,
2002-07-24, 11:24:00,VALID,920.065,VALID,0,VALID,69.1753,VALID,923.333,VALID,26.4466,VALID,9,VALID,0.968304,
2002-07-24, 11:25:00,VALID,920.054,VALID,0,VALID,69.7195,VALID,875.481,VALID,26.7022,VALID,18,VALID,1.39905,
2002-07-24, 11:26:00,VALID,920.033,VALID,0,VALID,68.0792,VALID,359.654,VALID,26.8758,VALID,5,VALID,1.10826,
2002-07-24, 11:27:00,VALID,920.029,VALID,0,VALID,68.0652,VALID,294.074,VALID,27.0253,VALID,15,VALID,0.483789,
2002-07-24, 11:28:00,VALID,920.029,VALID,0,VALID,66.2035,VALID,299.932,VALID,27.1356,VALID,205,VALID,1.28495,
2002-07-24, 11:29:00,VALID,920.021,VALID,0,VALID,66.997,VALID,337.851,VALID,26.7594,VALID,248,VALID,1.46214,
2002-07-24, 11:30:00,VALID,920.023,VALID,0,VALID,68.1923,VALID,647.394,VALID,26.1905,VALID,234,VALID,1.0597,
2002-07-24, 11:31:00,VALID,920.016,VALID,0,VALID,69.1893,VALID,803.89,VALID,25.9868,VALID,240,VALID,1.09657,
2002-07-24, 11:32:00,VALID,920,VALID,0,VALID,71.3624,VALID,796.893,VALID,26.0259,VALID,265,VALID,0.709459,
2002-07-24, 11:33:00,VALID,920.01,VALID,0,VALID,70.3541,VALID,742.164,VALID,26.2581,VALID,215,VALID,0.561328,
2002-07-24, 11:34:00,VALID,920.006,VALID,0,VALID,69.4207,VALID,411.649,VALID,26.433,VALID,238,VALID,0.415777,
2002-07-24, 11:35:00,VALID,919.974,VALID,0,VALID,69.2122,VALID,386.925,VALID,26.5789,VALID,175,VALID,0.370777,
2002-07-24, 11:36:00,VALID,919.948,VALID,0,VALID,69.2618,VALID,527.747,VALID,26.6504,VALID,263,VALID,0.519215,
2002-07-24, 11:37:00,VALID,919.942,VALID,0,VALID,67.9037,VALID,772.254,VALID,26.7309,VALID,236,VALID,0.539063,
2002-07-24, 11:38:00,VALID,919.939,VALID,0,VALID,65.85,VALID,867.432,VALID,26.7888,VALID,318,VALID,0.599159,
2002-07-24, 11:39:00,VALID,919.924,VALID,0,VALID,64.9917,VALID,917.406,VALID,26.8276,VALID,293,VALID,0.956572,
2002-07-24, 11:40:00,VALID,919.909,VALID,0,VALID,65.0909,VALID,929.344,VALID,26.6239,VALID,236,VALID,1.76499,
2002-07-24, 11:41:00,VALID,919.867,VALID,0,VALID,67.1178,VALID,943.846,VALID,26.3309,VALID,237,VALID,1.66113,
2002-07-24, 11:42:00,VALID,919.866,VALID,0,VALID,66.407,VALID,945.713,VALID,26.1617,VALID,217,VALID,1.36046,
2002-07-24, 11:43:00,VALID,919.838,VALID,0,VALID,67.8287,VALID,940.059,VALID,26.2102,VALID,259,VALID,0.676758,
2002-07-24, 11:44:00,VALID,919.819,VALID,0,VALID,66.5494,VALID,929.751,VALID,26.3816,VALID,239,VALID,1.46731,
2002-07-24, 11:45:00,VALID,919.807,VALID,0,VALID,67.2043,VALID,924.114,VALID,26.4366,VALID,167,VALID,0.908306,
2002-07-24, 11:46:00,VALID,919.779,VALID,0,VALID,66.4731,VALID,930.651,VALID,26.7474,VALID,188,VALID,0.852896,
2002-07-24, 11:47:00,VALID,919.761,VALID,0,VALID,65.6873,VALID,951.096,VALID,26.7536,VALID,233,VALID,1.85977,
2002-07-24, 11:48:00,VALID,919.741,VALID,0,VALID,66.6639,VALID,767.007,VALID,26.4198,VALID,232,VALID,1.59453,
2002-07-24, 11:49:00,VALID,919.732,VALID,0,VALID,68.94,VALID,973.953,VALID,26.3237,VALID,292,VALID,1.17023,
2002-07-24, 11:50:00,VALID,919.723,VALID,0,VALID,67.9876,VALID,738.445,VALID,26.3784,VALID,312,VALID,0.818873,
2002-07-24, 11:51:00,VALID,919.712,VALID,0,VALID,67.4217,VALID,836.34,VALID,26.5301,VALID,304,VALID,0.462582,
2002-07-24, 11:52:00,VALID,919.681,VALID,0,VALID,67.3365,VALID,910.495,VALID,26.8891,VALID,38,VALID,0.215345,
2002-07-24, 11:53:00,VALID,919.68,VALID,0,VALID,66.084,VALID,918.748,VALID,27.3679,VALID,176,VALID,0.640831,
2002-07-24, 11:54:00,VALID,919.65,VALID,0,VALID,65.2435,VALID,857.889,VALID,27.5426,VALID,279,VALID,0.974712,
2002-07-24, 11:55:00,VALID,919.656,VALID,0,VALID,66.0624,VALID,690.729,VALID,27.6824,VALID,21,VALID,1.16705,
2002-07-24, 11:56:00,VALID,919.633,VALID,0,VALID,63.9045,VALID,976.075,VALID,27.8503,VALID,15,VALID,1.02069,
2002-07-24, 11:57:00,VALID,919.606,VALID,0,VALID,63.0462,VALID,957.464,VALID,28.0289,VALID,29,VALID,1.11558,
2002-07-24, 11:58:00,VALID,919.586,VALID,0,VALID,63.701,VALID,515.385,VALID,28.2299,VALID,19,VALID,0.735008,
2002-07-24, 11:59:00,VALID,919.561,VALID,0,VALID,63.2305,VALID,877.23,VALID,28.268,VALID,293,VALID,0.910457,
2002-07-24, 12:00:00,VALID,919.55,VALID,0,VALID,62.1408,VALID,1092.22,VALID,28.2267,VALID,211,VALID,0.895089,
2002-07-24, 12:01:00,VALID,919.554,VALID,0,VALID,63.0182,VALID,634.234,VALID,28.1321,VALID,255,VALID,1.12438,
2002-07-24, 12:02:00,VALID,919.527,VALID,0,VALID,63.2115,VALID,326.406,VALID,27.984,VALID,208,VALID,0.523438,
2002-07-24, 12:03:00,VALID,919.529,VALID,0,VALID,62.0988,VALID,296.417,VALID,27.9279,VALID,249,VALID,0.60957,
2002-07-24, 12:04:00,VALID,919.526,VALID,0,VALID,61.5355,VALID,275.582,VALID,27.663,VALID,178,VALID,0.786595,
2002-07-24, 12:05:00,VALID,919.511,VALID,0,VALID,64.0851,VALID,265.495,VALID,27.42,VALID,4,VALID,0.800681,
2002-07-24, 12:06:00,VALID,919.522,VALID,0,VALID,65.2676,VALID,264.341,VALID,27.3129,VALID,71,VALID,0.669071,
2002-07-24, 12:07:00,VALID,919.519,VALID,0,VALID,65.5779,VALID,267.108,VALID,27.2431,VALID,185,VALID,0.17513,
2002-07-24, 12:08:00,VALID,919.524,VALID,0,VALID,65.4597,VALID,324.656,VALID,27.1715,VALID,220,VALID,0.553843,
2002-07-24, 12:09:00,VALID,919.534,VALID,0,VALID,65.246,VALID,282.663,VALID,26.8315,VALID,306,VALID,0.630859,
2002-07-24, 12:10:00,VALID,919.525,VALID,0,VALID,66.0077,VALID,285.855,VALID,26.5851,VALID,328,VALID,0.980374,
2002-07-24, 12:11:00,VALID,919.521,VALID,0,VALID,65.0947,VALID,327.272,VALID,26.2135,VALID,327,VALID,0.773649,
2002-07-24, 12:12:00,VALID,919.517,VALID,0,VALID,66.8661,VALID,410.376,VALID,26.0974,VALID,319,VALID,0.328547,
2002-07-24, 12:13:00,VALID,919.505,VALID,0,VALID,67.5629,VALID,402.497,VALID,26.1484,VALID,260,VALID,0.421165,
2002-07-24, 12:14:00,VALID,919.481,VALID,0,VALID,68.3971,VALID,335.558,VALID,26.2591,VALID,196,VALID,0.797877,
2002-07-24, 12:15:00,VALID,919.475,VALID,0,VALID,69.1003,VALID,325.149,VALID,26.3758,VALID,102,VALID,0.517923,
2002-07-24, 12:16:00,VALID,919.469,VALID,0,VALID,68.9922,VALID,306.861,VALID,26.5346,VALID,99,VALID,0.574747,
2002-07-24, 12:17:00,VALID,919.44,VALID,0,VALID,69.6,VALID,288.267,VALID,26.5414,VALID,82,VALID,0.529688,
2002-07-24, 12:18:00,VALID,919.417,VALID,0,VALID,70.9237,VALID,281.372,VALID,26.4088,VALID,6,VALID,0.856771,
2002-07-24, 12:19:00,VALID,919.404,VALID,0,VALID,71.4871,VALID,279.895,VALID,26.383,VALID,20,VALID,0.45957,
2002-07-24, 12:20:00,VALID,919.385,VALID,0,VALID,70.4672,VALID,280.574,VALID,26.4991,VALID,4,VALID,0.757813,
2002-07-24, 12:21:00,VALID,919.349,VALID,0,VALID,69.2948,VALID,282.34,VALID,26.5666,VALID,293,VALID,0.580592,
2002-07-24, 12:22:00,VALID,919.327,VALID,0,VALID,68.2966,VALID,282.85,VALID,26.6547,VALID,143,VALID,0.330031,
2002-07-24, 12:23:00,VALID,919.3,VALID,0,VALID,68.9947,VALID,319.053,VALID,26.7391,VALID,168,VALID,0.267578,
2002-07-24, 12:24:00,VALID,919.28,VALID,0,VALID,68.3131,VALID,498.116,VALID,26.8125,VALID,140,VALID,0.305664,
2002-07-24, 12:25:00,VALID,919.255,VALID,0,VALID,70.115,VALID,944.015,VALID,26.875,VALID,356,VALID,0.454153,
2002-07-24, 12:26:00,VALID,919.236,VALID,0,VALID,69.3787,VALID,936.968,VALID,27.0942,VALID,59,VALID,0.748766,
2002-07-24, 12:27:00,VALID,919.2,VALID,0,VALID,67.938,VALID,658.585,VALID,27.2179,VALID,69,VALID,1.15646,
2002-07-24, 12:28:00,VALID,919.178,VALID,0,VALID,68.1618,VALID,635.491,VALID,27.1949,VALID,13,VALID,1.07532,
2002-07-24, 12:29:00,VALID,919.165,VALID,0,VALID,67.231,VALID,781.441,VALID,27.2276,VALID,7,VALID,0.928454,
2002-07-24, 12:30:00,VALID,919.156,VALID,0,VALID,66.3536,VALID,391.731,VALID,27.2923,VALID,18,VALID,1.61451,
2002-07-24, 12:31:00,VALID,919.133,VALID,0,VALID,66.4846,VALID,354.747,VALID,27.1428,VALID,9,VALID,1.28562,
2002-07-24, 12:32:00,VALID,919.116,VALID,0,VALID,66.6321,VALID,368.416,VALID,27.1227,VALID,15,VALID,0.934122,
2002-07-24, 12:33:00,VALID,919.12,VALID,0,VALID,66.8012,VALID,372.186,VALID,27.16,VALID,335,VALID,0.618107,
2002-07-24, 12:34:00,VALID,919.091,VALID,0,VALID,67.0759,VALID,394.838,VALID,27.1751,VALID,32,VALID,0.607686,
2002-07-24, 12:35:00,VALID,919.083,VALID,0,VALID,69.0176,VALID,508.508,VALID,27.2437,VALID,12,VALID,1.84976,
2002-07-24, 12:36:00,VALID,919.075,VALID,0,VALID,69.6165,VALID,365.818,VALID,27.2596,VALID,11,VALID,1.77545,
2002-07-24, 12:37:00,VALID,919.072,VALID,0,VALID,69.6165,VALID,339.956,VALID,27.0295,VALID,27,VALID,1.91674,
2002-07-24, 12:38:00,VALID,919.078,VALID,0,VALID,70.2396,VALID,348.413,VALID,27.0367,VALID,21,VALID,1.38973,
2002-07-24, 12:39:00,VALID,919.053,VALID,0,VALID,69.4652,VALID,350.535,VALID,27.0467,VALID,33,VALID,0.754492,